Date,TemperatureHighF,TemperatureAvgF,TemperatureLowF,DewpointHighF,DewpointAvgF,DewpointLowF,HumidityHigh,HumidityAvg,HumidityLow,PressureMaxIn,PressureMinIn,WindSpeedMaxMPH,WindSpeedAvgMPH,GustSpeedMaxMPH,PrecipitationSumIn
2013-1-1,37.6,34.0,23.4,30.1,24.0,12.0,77,67,56,29.99,29.82,12,2,20,0.01
2013-1-2,30.4,25.0,19.1,21.0,14.9,11.5,79,65,55,30.16,29.98,13,2,15,0.00
2013-1-3,31.9,25.6,14.6,20.8,16.3,9.9,83,68,53,30.18,30.04,7,1,11,0.00
2013-1-4,37.6,32.7,28.5,26.0,23.2,21.0,78,68,57,30.05,29.91,9,2,18,0.00
2013-1-5,40.6,34.5,29.0,25.6,23.5,20.0,78,64,53,30.25,29.99,8,2,16,0.00
2013-1-6,45.7,36.5,30.0,32.0,28.4,24.5,90,73,54,30.20,29.95,6,1,12,0.00
2013-1-7,42.7,36.2,29.1,31.5,26.5,22.0,82,69,49,30.38,30.03,7,0,15,0.00
2013-1-8,47.6,35.1,26.9,32.4,27.7,22.4,90,75,55,30.41,30.32,7,1,10,0.00
2013-1-9,45.3,37.6,29.2,38.0,32.1,26.0,90,81,66,30.37,30.13,7,1,13,0.00
2013-1-10,46.3,41.1,36.9,33.0,26.8,25.0,66,57,44,30.52,30.20,11,2,17,0.00
2013-1-11,40.4,36.9,32.4,40.0,31.7,25.0,97,82,62,30.52,30.09,3,0,7,0.37
2013-1-12,45.4,43.4,40.5,44.2,42.6,39.7,98,97,96,30.16,30.06,6,1,6,0.04
2013-1-13,46.2,44.5,43.1,46.0,44.3,43.0,99,98,97,30.14,29.99,3,0,5,0.02
2013-1-14,54.1,47.3,36.4,52.0,42.6,32.0,99,85,56,30.28,29.89,10,1,18,0.08
2013-1-15,36.6,34.9,33.2,34.0,28.5,26.0,94,78,69,30.33,30.20,7,1,9,0.13
2013-1-16,33.0,31.6,29.8,32.0,30.7,29.0,100,96,85,30.22,29.81,5,1,8,0.00
2013-1-17,40.7,36.3,30.9,33.0,28.9,23.0,98,75,65,30.08,29.89,6,1,17,0.36
2013-1-18,30.3,25.3,22.1,23.0,12.0,6.0,74,58,42,30.45,30.01,11,2,15,0.00
2013-1-19,46.6,38.6,25.6,31.8,25.7,13.0,76,60,50,30.37,29.89,8,3,15,0.10
2013-1-20,51.3,40.4,27.8,33.0,23.3,-99.9,81,54,29,30.01,29.65,11,-2,24,0.00
2013-1-21,28.8,26.1,21.8,20.1,15.1,11.0,81,63,50,30.07,29.81,8,1,11,0.00
2013-1-22,24.7,17.9,11.3,18.0,2.2,-6.2,76,50,37,30.18,29.81,10,3,22,0.00
2013-1-23,18.2,12.1,8.2,3.2,-1.2,-5.0,77,55,39,30.24,30.14,9,2,16,0.00
2013-1-24,21.4,14.0,8.0,5.2,2.1,-1.0,83,61,39,30.37,30.12,15,3,24,0.00
2013-1-25,23.0,16.2,11.4,16.0,6.4,1.0,91,66,48,30.39,30.05,10,1,19,0.00
2013-1-26,26.7,18.6,11.4,12.0,9.0,6.0,91,68,43,30.35,30.03,9,2,14,0.00
2013-1-27,32.6,24.4,17.1,15.0,11.6,8.0,78,60,43,30.51,30.35,8,2,17,0.00
2013-1-28,32.7,28.3,22.9,32.0,23.8,13.0,96,84,64,30.48,29.99,5,0,10,0.14
2013-1-29,50.2,39.2,32.7,43.0,37.1,32.0,98,92,72,30.13,29.98,3,0,8,0.33
2013-1-30,54.2,46.1,37.1,54.0,45.6,36.0,99,98,97,30.07,29.34,5,0,9,0.26
2013-1-31,59.3,43.8,27.9,58.0,31.8,12.0,99,65,41,29.73,29.02,21,6,31,0.93
2013-2-1,29.5,26.2,22.0,17.0,11.8,7.0,75,55,41,30.20,29.73,10,3,26,0.00
2013-2-2,27.7,21.7,16.9,20.0,12.0,7.0,92,67,42,30.27,30.05,8,1,15,0.00
2013-2-3,30.1,24.4,19.8,21.0,18.9,17.0,94,80,63,30.04,29.78,7,0,7,0.04
2013-2-4,29.0,25.2,21.2,21.1,12.6,8.0,88,59,45,29.95,29.78,10,2,16,0.00
2013-2-5,28.5,26.5,23.9,26.2,22.6,15.0,93,85,64,29.97,29.89,4,0,7,0.00
2013-2-6,36.9,30.2,24.6,27.5,21.4,3.0,100,73,35,30.33,29.90,9,2,16,0.02
2013-2-7,29.8,25.5,20.1,21.0,11.3,5.0,74,56,40,30.50,30.32,9,1,9,0.00
2013-2-8,31.5,29.8,25.5,30.0,27.5,21.0,97,91,74,30.33,29.64,12,5,20,0.00
2013-2-9,30.5,25.8,19.3,26.0,18.3,7.0,96,76,47,30.32,29.74,19,5,20,0.01
2013-2-10,35.6,24.8,13.2,22.0,12.4,6.0,77,61,40,30.46,30.32,4,0,8,0.08
2013-2-11,41.9,35.5,28.4,41.0,33.2,22.0,98,92,72,30.31,29.66,3,0,7,0.34
2013-2-12,42.7,38.8,34.8,38.0,28.8,24.9,95,68,55,29.94,29.70,9,2,20,0.00
2013-2-13,43.0,34.9,28.0,32.0,25.9,23.0,95,71,52,29.93,29.68,5,0,7,0.00
2013-2-14,44.8,36.1,27.8,32.0,29.1,26.0,96,78,51,29.98,29.70,3,0,8,0.07
2013-2-15,52.8,41.6,31.1,35.0,30.4,26.0,92,67,42,29.99,29.89,9,1,13,0.00
2013-2-16,36.7,32.9,28.9,34.0,26.2,15.0,94,77,57,29.95,29.73,8,3,12,0.06
2013-2-17,28.8,24.5,15.6,15.2,7.8,1.0,58,50,36,29.95,29.64,17,6,28,0.00
2013-2-18,34.0,23.9,15.4,14.0,7.7,3.0,63,51,36,30.22,29.96,13,4,23,0.00
2013-2-19,43.7,35.1,25.1,40.0,27.7,14.0,96,75,52,30.19,29.67,9,1,22,0.29
2013-2-20,36.0,29.1,23.7,24.0,15.9,11.0,69,58,47,29.95,29.68,11,4,21,0.00
2013-2-21,31.0,25.8,22.6,16.0,14.0,12.0,72,61,52,30.29,29.95,21,5,24,0.00
2013-2-22,36.6,30.6,23.0,30.0,22.7,16.0,84,73,59,30.39,30.26,8,2,12,0.00
2013-2-23,39.1,35.5,32.2,38.3,34.5,29.0,97,96,84,30.27,29.80,8,2,9,0.10
2013-2-24,43.2,37.1,32.2,38.1,32.5,23.9,97,84,64,29.94,29.73,14,2,22,0.00
2013-2-25,42.9,37.0,30.3,30.5,27.6,23.8,85,69,57,30.22,29.95,7,1,11,0.00
2013-2-26,41.1,36.7,31.6,33.2,30.7,27.0,94,79,67,30.28,29.91,11,3,16,0.15
2013-2-27,44.6,39.9,34.3,43.3,38.5,33.0,97,95,88,29.91,29.49,16,4,23,0.88
2013-2-28,47.5,41.2,37.1,39.0,35.0,31.0,95,79,58,29.61,29.53,4,0,12,0.00
2013-3-1,43.1,37.8,34.2,32.5,30.2,25.0,87,74,58,29.76,29.58,7,1,10,0.00
2013-3-2,37.7,33.9,29.3,27.3,25.5,23.9,88,71,63,29.75,29.68,0,0,0,0.00
2013-3-3,38.8,30.6,27.0,24.0,20.4,17.9,80,66,50,29.74,29.64,9,1,17,0.00
2013-3-4,37.4,31.1,25.8,22.9,20.8,16.8,76,66,54,29.89,29.73,13,4,24,0.00
2013-3-5,45.9,37.0,29.9,28.6,25.7,21.8,75,64,49,30.01,29.88,8,3,19,0.00
2013-3-6,40.9,38.3,36.4,37.0,31.4,28.0,90,76,68,29.97,29.86,19,6,27,0.02
2013-3-7,37.1,34.4,31.6,32.3,30.1,27.0,96,84,70,30.07,29.92,16,5,22,0.02
2013-3-8,41.4,34.5,30.3,34.2,30.9,28.0,100,87,67,30.19,29.99,15,3,22,0.34
2013-3-9,53.4,42.8,34.2,28.1,23.1,15.0,68,48,24,30.30,30.17,12,4,20,0.00
2013-3-10,49.8,38.3,30.6,37.0,31.3,22.0,93,77,53,30.37,30.27,7,1,12,0.00
2013-3-11,52.3,44.8,37.1,48.0,41.6,35.0,96,88,69,30.30,30.07,9,2,14,0.00
2013-3-12,53.1,50.3,44.7,52.1,48.8,40.0,97,94,84,30.07,29.65,10,3,23,1.22
2013-3-13,48.3,41.7,33.3,33.8,29.6,22.9,93,64,38,29.86,29.76,7,2,17,0.00
2013-3-14,38.4,32.2,26.5,27.5,14.5,7.0,71,49,29,29.94,29.82,12,5,25,0.00
2013-3-15,43.0,35.0,27.4,31.3,20.7,10.0,70,56,42,29.94,29.70,9,3,18,0.00
2013-3-16,38.4,33.3,30.3,30.0,25.2,20.9,93,73,56,29.89,29.76,7,1,15,0.02
2013-3-17,36.0,31.4,26.2,29.0,18.9,12.0,91,62,41,30.29,29.90,9,2,16,0.01
2013-3-18,32.9,28.7,24.5,30.0,17.5,9.0,96,65,47,30.40,30.02,7,3,12,0.00
2013-3-19,41.6,35.2,31.1,36.0,33.0,27.0,97,91,74,30.02,29.69,9,3,14,0.73
2013-3-20,41.9,35.6,29.1,26.0,21.6,19.0,75,58,41,29.85,29.77,11,2,20,0.02
2013-3-21,37.8,32.6,28.9,28.0,17.8,13.0,88,56,38,29.82,29.61,7,2,14,0.00
2013-3-22,39.1,32.1,26.6,24.0,19.5,15.0,73,60,48,29.86,29.70,9,2,17,0.00
2013-3-23,43.1,36.8,31.5,25.0,21.9,20.0,67,56,42,29.92,29.79,16,3,22,0.00
2013-3-24,44.4,37.3,29.3,25.0,23.1,20.0,72,57,46,29.93,29.70,10,2,12,0.00
2013-3-25,41.7,38.5,35.5,34.0,28.9,25.0,84,69,53,29.69,29.45,7,1,14,0.00
2013-3-26,48.4,41.6,35.2,33.3,28.8,26.0,76,61,43,29.84,29.57,8,1,12,0.00
2013-3-27,50.8,41.7,34.1,31.2,27.6,23.0,74,58,35,29.95,29.84,13,3,22,0.01
2013-3-28,47.4,42.0,36.9,34.7,31.5,29.8,79,67,56,30.09,29.93,9,3,16,0.00
2013-3-29,51.6,44.8,39.1,32.1,30.3,27.9,72,58,41,30.11,30.03,8,3,16,0.00
2013-3-30,56.1,45.9,36.9,32.2,27.5,21.0,78,52,28,30.15,30.04,8,1,16,0.00
2013-3-31,53.7,44.7,35.2,43.0,32.2,21.9,96,63,40,30.10,29.66,10,2,20,0.15
2013-4-1,60.8,45.5,35.0,46.3,36.3,14.0,98,74,38,29.88,29.58,15,3,19,0.02
2013-4-2,42.3,33.3,30.1,18.7,15.8,10.0,62,49,30,30.06,29.88,13,3,26,0.00
2013-4-3,45.2,37.1,30.6,17.0,14.9,12.0,57,41,29,30.28,30.05,12,4,23,0.00
2013-4-4,53.8,40.0,28.6,31.6,21.5,16.0,65,49,29,30.37,30.06,10,2,18,0.00
2013-4-5,59.7,48.3,38.2,30.0,24.0,17.8,69,41,24,30.05,29.70,13,4,19,0.00
2013-4-6,52.2,42.3,33.5,28.3,16.6,8.0,67,38,17,30.29,29.98,9,2,14,0.00
2013-4-7,56.1,45.0,36.9,44.0,34.2,27.0,87,67,43,30.28,29.97,12,3,18,0.00
2013-4-8,74.1,57.6,44.0,46.0,43.2,40.0,93,63,30,30.06,29.96,9,1,13,0.00
2013-4-9,78.8,65.3,49.6,53.0,45.1,37.0,94,54,23,29.97,29.88,12,2,25,0.00
2013-4-10,70.6,60.4,51.2,56.0,50.8,42.0,96,72,45,29.92,29.79,7,2,22,0.69
2013-4-11,59.8,52.2,44.1,57.0,46.5,38.0,97,82,59,30.03,29.76,9,3,12,0.02
2013-4-12,45.4,41.7,38.8,41.0,38.2,34.0,96,88,71,30.02,29.71,14,5,28,0.60
2013-4-13,56.8,47.0,38.4,41.3,37.2,33.0,96,72,45,29.94,29.73,8,1,11,0.01
2013-4-14,53.4,48.7,43.9,37.4,32.1,27.9,69,54,39,30.20,29.94,11,2,17,0.00
2013-4-15,57.7,48.1,38.8,36.8,32.0,28.0,75,55,43,30.36,30.20,6,1,13,0.00
2013-4-16,62.3,54.1,44.7,55.0,47.5,35.7,86,78,67,30.35,30.08,8,2,14,0.00
2013-4-17,66.6,59.7,52.6,57.0,44.9,36.0,92,61,37,30.27,30.08,9,2,10,0.00
2013-4-18,58.7,52.7,46.0,52.0,42.9,35.8,92,71,44,30.32,30.08,6,1,16,0.00
2013-4-19,72.4,62.5,53.8,64.0,59.0,51.8,97,89,73,30.08,29.61,9,2,17,0.37
2013-4-20,60.7,51.0,42.5,59.0,38.1,25.0,95,65,34,30.28,29.64,10,3,18,0.19
2013-4-21,50.6,43.0,33.4,26.0,22.7,20.0,68,46,31,30.60,30.30,7,2,15,0.00
2013-4-22,52.2,44.9,36.6,36.0,30.8,24.0,84,60,36,30.65,30.49,15,3,17,0.00
2013-4-23,50.5,43.2,37.6,42.0,37.3,32.0,91,80,72,30.48,30.10,7,3,11,0.00
2013-4-24,70.1,55.0,37.5,52.7,46.6,36.0,96,75,52,30.10,29.80,8,2,14,0.00
2013-4-25,64.0,53.4,44.1,52.8,33.7,23.0,91,51,21,30.24,29.82,12,3,20,0.00
2013-4-26,64.6,54.4,43.8,36.0,31.1,23.0,62,43,21,30.39,30.23,7,1,10,0.00
2013-4-27,67.5,56.1,43.4,35.0,31.2,27.0,60,40,27,30.41,30.25,5,1,9,0.00
2013-4-28,69.5,56.3,43.7,42.0,36.1,31.0,68,48,32,30.29,30.17,9,1,16,0.00
2013-4-29,54.9,53.3,51.2,50.0,46.8,36.0,92,79,52,30.21,30.17,5,0,9,0.04
2013-4-30,66.2,56.7,47.9,48.0,40.0,29.0,87,57,30,30.31,30.19,9,1,9,0.00
2013-5-1,67.3,56.8,42.4,46.4,38.1,30.0,82,52,30,30.46,30.31,7,1,11,0.00
2013-5-2,74.2,58.6,43.8,46.0,42.5,39.0,92,60,30,30.45,30.29,8,1,10,0.00
2013-5-3,66.2,56.1,46.6,45.0,40.7,36.0,88,58,37,30.43,30.32,7,1,9,0.00
2013-5-4,70.3,55.0,43.2,47.6,44.2,41.4,94,70,40,30.35,30.19,7,1,11,0.00
2013-5-5,63.3,50.9,40.6,46.1,41.5,38.7,94,73,43,30.28,30.19,6,1,9,0.00
2013-5-6,70.1,54.6,41.4,55.5,47.9,39.7,96,80,54,30.25,30.12,7,0,8,0.00
2013-5-7,73.2,61.0,48.2,59.1,53.8,46.7,96,79,58,30.15,30.06,4,0,10,0.00
2013-5-8,61.6,59.2,53.6,61.0,57.8,52.0,97,95,90,30.09,29.95,3,0,13,1.67
2013-5-9,69.8,58.0,51.3,59.2,55.5,50.5,98,92,67,29.99,29.86,2,0,6,0.70
2013-5-10,80.6,65.4,52.6,60.0,56.0,51.8,98,75,42,29.98,29.86,7,0,9,0.01
2013-5-11,69.1,63.2,60.4,65.0,61.4,57.0,97,94,86,29.88,29.67,5,0,8,0.45
2013-5-12,61.6,57.1,48.7,61.0,43.0,29.0,97,64,33,29.90,29.63,6,1,17,0.02
2013-5-13,54.6,47.2,38.5,35.1,31.1,26.7,83,55,37,30.09,29.90,8,1,13,0.00
2013-5-14,60.2,48.5,39.0,35.2,31.0,23.7,84,55,25,30.11,30.00,5,1,11,0.00
2013-5-15,68.5,55.3,41.0,57.3,46.4,31.0,87,72,55,30.05,29.65,4,0,8,0.00
2013-5-16,82.2,69.5,55.5,57.1,49.1,40.5,92,53,27,29.81,29.68,5,0,13,0.00
2013-5-17,73.0,63.0,54.9,47.0,43.5,39.0,70,50,35,30.18,29.80,8,0,12,0.00
2013-5-18,66.6,57.4,50.0,57.0,49.8,43.5,95,77,49,30.28,30.18,4,0,8,0.08
2013-5-19,57.3,55.8,54.4,56.5,54.8,52.8,98,96,94,30.30,30.16,5,0,6,0.47
2013-5-20,81.1,66.7,56.4,69.0,62.5,55.6,99,88,63,30.16,29.93,4,0,7,0.01
2013-5-21,88.2,74.9,62.5,72.4,67.7,61.8,98,80,57,29.95,29.80,4,0,9,0.00
2013-5-22,80.7,69.7,58.9,72.0,65.8,57.5,95,88,73,29.90,29.80,4,0,7,0.00
2013-5-23,74.7,68.7,64.6,70.0,66.8,63.6,97,94,83,29.86,29.73,6,0,10,2.63
2013-5-24,64.4,52.8,44.1,64.0,51.6,41.9,98,95,88,29.93,29.64,5,1,17,0.43
2013-5-25,51.0,47.0,42.7,45.5,42.7,39.9,97,85,71,29.97,29.87,14,2,19,0.47
2013-5-26,64.7,53.8,45.1,43.3,39.9,36.0,82,62,40,30.18,29.92,10,2,20,0.00
2013-5-27,75.7,60.7,46.8,44.8,39.8,36.0,72,49,26,30.22,30.09,9,1,12,0.00
2013-5-28,65.7,56.8,50.5,56.2,51.1,43.0,97,82,58,30.19,30.10,1,0,6,0.46
2013-5-29,83.3,66.6,57.0,71.4,62.7,56.0,99,88,64,30.12,29.97,4,0,9,0.01
2013-5-30,91.5,79.0,67.2,70.0,66.5,64.0,94,68,42,30.09,30.01,2,0,8,0.00
2013-5-31,92.8,79.7,65.9,72.0,66.1,62.0,93,66,40,30.09,29.95,4,0,8,0.00
2013-6-1,91.6,79.6,64.9,72.0,68.0,63.0,94,69,50,29.98,29.86,5,0,9,0.00
2013-6-2,87.8,77.5,69.7,72.5,69.6,67.8,96,78,58,29.87,29.72,5,0,11,0.30
2013-6-3,77.5,70.2,64.4,69.5,64.8,50.0,97,84,58,29.86,29.77,6,0,14,0.51
2013-6-4,75.1,64.9,54.4,49.0,45.4,40.0,70,51,34,30.09,29.86,8,1,15,0.03
2013-6-5,74.8,63.6,51.8,53.0,46.9,37.0,79,56,41,30.19,30.08,3,0,8,0.00
2013-6-6,68.1,60.5,52.6,59.3,54.9,49.0,96,83,53,30.12,30.00,5,0,8,0.25
2013-6-7,60.3,59.0,57.5,60.0,58.4,57.0,100,98,96,29.99,29.64,4,0,8,2.75
2013-6-8,75.6,65.2,55.4,65.0,60.2,54.7,98,85,67,30.02,29.58,6,1,12,0.11
2013-6-9,81.0,69.2,57.0,61.0,59.2,56.0,96,73,47,30.15,30.03,3,0,10,0.00
2013-6-10,68.6,63.5,60.6,66.0,61.4,59.0,98,93,86,30.14,29.82,3,0,8,1.14
2013-6-11,78.9,69.0,60.7,68.7,63.7,57.0,99,85,65,29.82,29.59,9,1,14,0.12
2013-6-12,75.2,67.7,60.2,59.0,56.1,53.0,87,67,50,29.83,29.68,8,1,14,0.00
2013-6-13,60.8,58.6,54.0,60.0,57.0,53.0,97,94,87,29.82,29.47,8,1,11,1.37
2013-6-14,74.8,60.5,51.5,59.4,54.3,50.0,97,81,56,29.86,29.52,5,0,12,0.39
2013-6-15,80.1,69.0,58.7,58.3,55.2,51.0,89,64,39,29.98,29.86,7,0,12,0.00
2013-6-16,80.1,68.4,56.5,66.0,58.5,51.0,88,71,51,29.96,29.73,4,0,13,0.00
2013-6-17,86.4,73.9,63.2,68.2,64.6,61.0,97,75,47,29.88,29.80,5,0,11,0.01
2013-6-18,81.4,67.8,61.3,69.0,63.5,59.8,96,87,63,29.87,29.80,3,0,5,0.30
2013-6-19,76.9,65.2,56.2,60.1,54.0,47.5,96,70,40,30.14,29.86,3,0,7,0.00
2013-6-20,82.2,67.9,54.1,61.0,56.6,53.0,95,70,42,30.24,30.14,2,0,9,0.00
2013-6-21,84.2,71.1,57.2,63.0,58.9,54.0,89,67,48,30.27,30.19,3,0,8,0.00
2013-6-22,85.0,71.5,57.9,67.0,60.3,55.0,90,69,50,30.23,30.09,3,0,8,0.00
2013-6-23,89.9,77.4,62.9,73.0,67.8,59.0,94,74,53,30.16,30.02,5,0,9,0.00
2013-6-24,93.8,80.1,70.4,73.0,69.9,65.0,95,73,45,30.04,29.90,5,0,9,0.00
2013-6-25,91.6,78.6,67.0,74.0,69.2,64.9,94,74,49,29.97,29.77,4,0,14,0.00
2013-6-26,82.4,76.9,71.3,73.0,69.7,67.0,92,79,68,29.82,29.74,2,0,10,0.00
2013-6-27,83.2,74.7,67.7,73.7,70.2,65.9,97,86,70,29.79,29.51,2,0,8,0.91
2013-6-28,87.2,76.8,70.8,72.0,70.2,67.0,97,81,58,29.52,29.44,6,0,8,0.10
2013-6-29,85.9,74.9,67.3,71.0,68.0,66.0,95,80,51,29.67,29.46,5,0,7,0.00
2013-6-30,82.3,74.1,67.4,75.0,71.3,67.0,98,91,79,29.89,29.68,4,0,8,0.01
2013-7-1,74.0,72.5,70.1,73.0,71.4,69.0,97,96,94,30.02,29.87,1,0,4,1.08
2013-7-2,81.3,74.9,71.7,77.0,73.1,71.0,98,94,82,30.14,30.02,1,0,6,0.13
2013-7-3,83.5,76.8,71.1,77.0,73.1,70.0,95,88,77,30.22,30.13,2,0,6,0.01
2013-7-4,89.7,80.6,73.7,76.0,74.0,73.0,97,81,61,30.22,30.11,4,0,10,0.00
2013-7-5,92.2,82.1,71.7,76.0,73.0,70.0,96,75,54,30.18,30.05,7,0,9,0.00
2013-7-6,91.7,81.0,73.0,76.0,73.7,71.0,95,79,58,30.10,29.99,7,0,12,0.00
2013-7-7,94.3,83.6,73.6,77.0,74.4,69.6,95,76,53,30.03,29.87,3,0,9,0.08
2013-7-8,88.6,77.8,69.2,71.9,69.3,67.0,94,77,56,30.01,29.93,5,0,11,0.00
2013-7-9,88.2,77.8,68.3,75.0,70.2,66.5,95,78,53,30.04,29.95,1,0,7,0.00
2013-7-10,85.9,78.5,72.4,77.0,72.7,69.4,93,83,67,29.99,29.77,4,0,12,0.38
2013-7-11,84.0,76.2,71.9,73.2,70.8,64.0,95,84,63,29.90,29.77,4,0,9,0.01
2013-7-12,75.7,71.4,65.3,70.0,65.8,63.0,96,82,75,30.09,29.90,3,0,9,0.13
2013-7-13,77.8,70.3,64.5,75.0,69.3,63.0,98,96,91,30.26,30.09,3,0,5,0.27
2013-7-14,90.0,80.2,71.3,78.0,74.0,71.0,99,83,60,30.31,30.20,4,0,9,0.01
2013-7-15,92.7,82.4,75.1,76.0,73.8,72.0,90,76,52,30.22,30.11,7,0,8,0.00
2013-7-16,91.0,81.8,72.7,72.0,69.6,68.0,86,68,49,30.18,30.11,5,0,7,0.00
2013-7-17,95.9,83.6,74.2,75.0,71.4,68.0,85,69,42,30.16,30.03,2,0,6,0.00
2013-7-18,95.8,85.0,75.1,77.0,74.3,72.0,89,72,49,30.03,29.91,4,0,9,0.00
2013-7-19,95.7,86.4,75.8,78.0,75.8,74.0,93,72,52,29.94,29.75,6,0,13,0.00
2013-7-20,91.3,83.2,76.7,77.0,72.9,70.0,86,72,57,29.81,29.68,6,0,13,0.00
2013-7-21,86.0,78.2,72.5,71.1,66.5,62.0,86,68,54,29.93,29.80,3,0,4,0.00
2013-7-22,83.2,74.2,68.6,75.3,70.5,64.0,97,88,73,29.93,29.78,2,0,4,0.26
2013-7-23,87.1,75.9,71.3,76.1,72.9,70.7,98,91,65,29.78,29.53,3,0,10,1.45
2013-7-24,78.8,72.7,65.4,71.5,65.3,54.0,97,79,57,29.92,29.59,5,0,10,0.00
2013-7-25,65.6,63.2,59.7,61.0,55.6,50.0,85,76,67,30.04,29.91,5,0,8,0.00
2013-7-26,82.6,70.9,63.3,66.0,62.1,59.6,91,75,53,30.02,29.96,3,0,6,0.00
2013-7-27,84.7,71.6,61.0,67.5,63.1,59.6,95,76,52,30.03,29.93,5,0,7,0.00
2013-7-28,76.7,70.1,64.8,70.0,66.8,63.0,98,89,74,29.96,29.91,1,0,5,0.02
2013-7-29,83.7,74.1,66.1,70.0,64.5,56.7,98,75,44,30.07,29.93,5,0,8,0.00
2013-7-30,77.3,69.0,59.0,62.0,58.7,55.9,91,71,55,30.14,30.07,4,0,9,0.00
2013-7-31,81.5,69.0,58.9,66.0,61.2,56.7,94,78,53,30.13,30.01,4,0,5,0.00
2013-8-1,72.2,66.6,64.9,67.0,64.8,63.0,98,94,81,30.02,29.82,0,0,8,0.50
2013-8-2,82.5,72.3,62.0,67.0,64.5,62.0,98,78,51,29.89,29.77,4,0,12,0.01
2013-8-3,77.8,68.3,63.1,69.0,64.2,59.0,96,87,68,29.88,29.81,6,0,8,0.08
2013-8-4,77.8,69.7,61.8,64.0,57.8,52.0,90,67,48,29.95,29.83,11,0,15,0.00
2013-8-5,77.9,66.4,58.2,56.0,52.3,47.0,83,62,39,30.03,29.95,5,0,10,0.00
2013-8-6,79.6,67.6,55.4,61.0,56.8,53.0,92,71,45,30.10,30.02,3,0,7,0.00
2013-8-7,77.1,69.2,63.2,68.0,64.5,59.0,93,85,70,30.12,30.04,4,0,8,0.02
2013-8-8,81.2,72.2,68.1,75.0,70.3,67.0,98,94,79,30.04,29.99,3,0,9,0.66
2013-8-9,84.6,74.9,70.8,77.0,72.7,70.0,99,93,75,29.99,29.77,2,0,13,0.69
2013-8-10,82.8,72.5,65.3,70.4,64.3,57.8,97,77,51,30.03,29.83,4,0,12,0.00
2013-8-11,78.1,68.6,57.5,64.4,58.5,54.0,89,71,53,30.11,30.01,3,0,7,0.00
2013-8-12,83.4,72.1,65.3,66.0,64.0,60.0,95,77,47,30.01,29.90,1,0,5,0.00
2013-8-13,78.5,69.9,65.5,70.0,67.2,64.0,97,91,74,29.91,29.67,6,0,9,0.76
2013-8-14,72.3,63.8,56.7,64.0,54.3,48.0,96,72,56,30.02,29.73,8,1,16,0.01
2013-8-15,75.9,64.0,54.5,56.0,53.0,50.0,88,69,46,30.12,30.03,3,0,9,0.00
2013-8-16,79.9,66.6,55.3,60.0,55.8,53.0,94,71,42,30.18,30.10,0,0,7,0.00
2013-8-17,81.8,68.5,57.0,63.0,58.6,54.0,92,72,43,30.26,30.18,1,0,4,0.00
2013-8-18,74.0,67.7,62.3,67.0,62.1,58.0,92,82,69,30.24,30.11,0,0,1,0.00
2013-8-19,77.6,68.7,60.2,68.0,63.2,59.0,97,83,65,30.11,30.01,4,0,8,0.01
2013-8-20,85.3,73.4,62.3,68.0,64.9,61.0,96,77,47,30.10,30.02,9,0,9,0.00
2013-8-21,89.0,74.8,62.8,67.0,64.0,60.0,94,71,44,30.16,30.03,2,0,7,0.00
2013-8-22,76.2,70.7,68.3,73.0,68.9,65.0,97,94,83,30.04,29.85,2,0,5,0.75
2013-8-23,78.3,71.4,65.2,68.0,62.1,53.0,96,74,54,30.09,29.85,5,0,7,0.00
2013-8-24,78.9,67.6,60.5,59.0,54.9,51.0,89,65,45,30.33,30.10,1,0,6,0.00
2013-8-25,83.3,68.3,55.2,60.0,56.5,52.0,97,70,36,30.37,30.20,5,0,8,0.00
2013-8-26,76.6,70.0,64.9,70.0,63.7,58.0,96,80,74,30.20,29.88,1,0,7,0.11
2013-8-27,83.7,73.9,68.3,71.0,69.1,68.0,98,86,65,29.88,29.78,6,0,8,0.04
2013-8-28,83.6,71.7,66.7,72.0,69.3,66.0,98,92,66,29.88,29.82,2,0,6,0.08
2013-8-29,77.4,70.5,66.8,70.0,67.9,65.0,98,91,75,30.01,29.86,0,0,4,0.03
2013-8-30,86.0,74.1,67.2,71.0,68.4,66.0,95,83,57,30.01,29.83,4,0,8,0.00
2013-8-31,84.6,76.6,70.5,76.0,72.2,69.0,95,86,71,29.84,29.76,4,0,7,0.00
2013-9-1,80.1,75.1,72.1,76.0,73.0,70.0,97,93,86,29.83,29.77,0,0,5,0.09
2013-9-2,80.4,73.8,70.3,75.0,72.3,69.0,99,95,80,29.79,29.69,0,0,4,0.08
2013-9-3,78.3,70.8,64.0,70.0,64.1,58.0,99,81,52,29.87,29.69,10,0,16,0.37
2013-9-4,82.1,68.6,59.6,62.0,58.6,55.0,92,73,44,29.98,29.86,4,0,12,0.00
2013-9-5,73.9,65.8,56.3,62.0,54.0,45.0,92,69,36,30.14,29.89,4,0,12,0.00
2013-9-6,71.0,59.2,51.0,48.0,45.2,42.0,81,62,39,30.25,30.11,5,0,6,0.00
2013-9-7,79.5,63.4,47.9,57.0,50.6,45.0,92,66,39,30.11,29.88,3,0,8,0.00
2013-9-8,79.7,69.0,59.6,65.3,55.6,44.0,87,64,37,30.07,29.80,7,1,12,0.00
2013-9-9,71.9,61.3,49.5,59.0,50.2,43.8,87,68,49,30.23,30.06,2,0,6,0.00
2013-9-10,85.6,73.0,64.0,75.1,68.5,59.0,97,86,71,30.14,30.02,4,0,8,0.07
2013-9-11,94.0,80.1,70.9,79.0,73.8,69.8,97,82,59,30.09,29.93,4,0,12,0.00
2013-9-12,83.8,73.4,67.1,75.0,68.0,-99.9,98,87,73,29.96,29.68,4,-19,5,0.00
2013-9-13,74.0,65.4,55.9,67.0,60.2,50.0,98,84,63,29.83,29.60,7,1,13,0.08
2013-9-14,64.1,56.0,50.8,51.0,48.2,45.6,83,75,61,30.11,29.83,4,0,13,0.00
2013-9-15,72.1,57.2,45.0,52.1,48.1,43.0,95,74,44,30.20,30.07,6,0,8,0.00
2013-9-16,68.5,60.2,53.5,56.4,53.8,46.1,96,80,59,30.24,30.01,4,0,7,0.01
2013-9-17,64.0,53.1,46.3,47.0,42.4,38.8,90,68,48,30.42,30.24,3,0,7,0.00
2013-9-18,73.5,56.2,43.0,52.0,46.8,41.9,97,75,38,30.34,30.16,3,0,5,0.00
2013-9-19,78.8,60.1,45.3,55.5,50.9,44.0,97,75,41,30.18,30.05,1,0,8,0.00
2013-9-20,79.7,62.6,49.4,62.1,55.7,48.0,98,81,48,30.07,29.97,3,0,5,0.00
2013-9-21,75.8,64.3,53.9,67.0,61.2,53.0,98,90,70,30.00,29.64,5,0,9,0.70
2013-9-22,67.5,59.8,52.0,66.5,52.6,42.8,98,78,59,29.90,29.63,8,0,14,0.56
2013-9-23,64.5,53.9,44.3,47.1,44.1,41.0,90,71,50,30.04,29.89,4,0,12,0.00
2013-9-24,72.1,55.3,41.0,50.5,45.3,39.0,95,72,44,30.04,29.86,7,0,10,0.00
2013-9-25,71.2,57.5,45.4,55.0,48.4,42.9,92,73,49,29.94,29.86,3,0,7,0.00
2013-9-26,68.2,59.4,52.9,59.0,54.0,50.0,93,83,64,30.09,29.92,2,0,4,0.00
2013-9-27,64.5,57.5,50.5,55.3,52.3,48.5,94,83,69,30.26,30.09,2,0,5,0.00
2013-9-28,71.5,60.3,52.1,57.0,53.5,50.0,93,79,56,30.32,30.22,3,0,4,0.00
2013-9-29,70.8,59.1,50.6,59.0,53.8,49.5,97,84,56,30.22,30.06,3,0,5,0.00
2013-9-30,73.4,58.9,48.8,57.1,52.9,47.7,98,82,53,30.08,29.96,2,0,5,0.00
2013-10-1,79.2,63.4,50.5,61.2,55.9,49.6,98,79,48,29.99,29.88,4,0,11,0.00
2013-10-2,82.1,67.6,55.5,64.8,60.0,54.0,96,78,54,29.99,29.89,4,0,11,0.00
2013-10-3,77.5,65.3,54.0,61.0,57.2,52.0,95,77,43,30.11,29.99,1,0,6,0.00
2013-10-4,84.7,69.1,59.4,70.0,64.0,58.0,95,85,56,30.05,29.94,2,0,9,0.00
2013-10-5,75.4,67.2,62.8,67.3,64.1,61.0,95,90,75,30.08,30.00,2,0,3,0.00
2013-10-6,65.6,64.2,63.2,65.0,63.6,63.0,99,97,94,30.08,30.01,2,0,5,0.02
2013-10-7,71.8,65.2,57.5,70.0,64.1,51.0,99,96,79,30.01,29.70,5,0,18,0.45
2013-10-8,64.4,55.9,49.9,50.0,47.6,44.0,91,75,53,30.32,29.95,4,0,6,0.00
2013-10-9,60.9,54.1,49.3,50.0,46.3,42.0,90,75,59,30.41,30.30,3,0,6,0.00
2013-10-10,59.3,55.3,50.4,54.0,50.7,47.0,90,84,81,30.30,30.07,3,1,7,0.00
2013-10-11,65.9,60.7,56.9,61.0,55.9,52.0,90,84,79,30.08,30.01,4,1,7,0.00
2013-10-12,72.0,62.7,56.6,59.0,51.0,44.0,88,67,39,30.28,30.07,4,1,10,0.00
2013-10-13,63.0,56.1,50.8,53.0,50.9,49.0,94,83,70,30.38,30.28,3,0,7,0.00
2013-10-14,66.5,55.4,50.4,52.0,50.2,49.0,96,84,58,30.35,30.23,2,0,4,0.00
2013-10-15,71.3,57.0,47.8,57.0,51.2,47.0,98,83,54,30.25,30.11,2,0,5,0.00
2013-10-16,64.0,57.3,50.4,59.0,54.4,49.0,95,90,81,30.11,29.90,1,0,3,0.00
2013-10-17,74.3,65.0,59.6,62.1,60.6,58.0,98,87,63,29.90,29.66,2,0,7,0.02
2013-10-18,66.3,59.1,48.5,62.1,49.2,43.7,96,71,46,29.96,29.64,6,1,14,0.01
2013-10-19,61.3,53.1,42.8,53.0,46.2,40.6,95,78,53,29.97,29.73,2,0,6,0.07
2013-10-20,61.6,52.1,45.2,52.3,42.1,38.0,96,71,43,30.05,29.73,7,0,11,0.01
2013-10-21,66.3,52.3,39.2,46.3,40.9,37.0,93,68,36,30.14,29.96,4,0,7,0.00
2013-10-22,61.1,52.2,43.5,52.0,46.9,41.0,98,83,68,29.96,29.72,4,0,9,0.00
2013-10-23,53.2,45.0,38.2,42.2,38.6,36.0,95,79,57,29.80,29.61,3,0,9,0.00
2013-10-24,53.0,44.1,37.4,37.0,32.4,28.0,88,65,43,29.98,29.72,6,1,12,0.00
2013-10-25,51.0,41.4,33.1,35.5,32.2,29.6,90,71,49,30.21,29.98,6,1,15,0.00
2013-10-26,54.0,43.2,31.7,35.2,32.6,30.4,96,69,42,30.20,29.88,7,1,15,0.00
2013-10-27,56.0,48.0,40.8,35.7,33.9,32.0,76,59,42,30.10,29.83,7,1,12,0.00
2013-10-28,60.5,47.4,35.4,37.0,34.7,32.0,87,64,39,30.31,30.10,8,0,15,0.00
2013-10-29,51.3,44.7,38.8,35.0,32.4,30.0,82,63,47,30.41,30.31,3,0,5,0.00
2013-10-30,55.7,46.5,38.2,50.0,42.1,34.0,96,85,73,30.34,30.17,4,0,5,0.00
2013-10-31,61.3,53.5,43.8,59.0,52.3,43.0,98,96,88,30.22,29.78,5,0,9,0.04
2013-11-1,69.2,63.1,53.9,64.0,57.6,52.0,95,83,56,29.77,29.52,7,1,17,0.18
2013-11-2,65.5,55.7,48.9,52.0,45.9,40.0,95,71,50,29.76,29.59,9,0,11,0.00
2013-11-3,49.0,42.5,34.4,43.0,33.0,19.0,86,70,53,30.43,29.76,8,1,11,0.01
2013-11-4,43.5,36.2,31.2,27.0,20.8,18.0,73,55,36,30.65,30.44,6,1,10,0.00
2013-11-5,52.3,43.3,34.4,41.0,35.6,27.0,87,74,62,30.65,30.48,2,0,5,0.00
2013-11-6,58.0,50.3,40.9,51.0,45.0,39.0,95,83,66,30.48,30.06,5,0,8,0.00
2013-11-7,60.2,51.7,38.4,57.0,47.7,31.0,96,86,62,30.05,29.73,5,1,11,0.08
2013-11-8,46.1,40.8,35.8,33.0,29.3,26.0,84,65,47,30.19,29.90,7,1,16,0.00
2013-11-9,48.5,41.7,33.8,34.0,28.8,27.0,78,61,44,30.27,29.98,5,1,9,0.00
2013-11-10,57.7,46.2,37.9,41.0,35.2,30.0,86,67,44,30.02,29.78,9,2,18,0.01
2013-11-11,50.1,46.1,39.6,34.0,30.4,27.0,62,55,48,30.17,29.94,8,1,18,0.00
2013-11-12,49.3,36.2,28.7,37.0,24.6,17.0,90,64,51,30.27,29.91,9,2,14,0.02
2013-11-13,37.4,30.5,26.5,20.0,16.3,12.0,73,57,36,30.35,30.25,8,2,15,0.00
2013-11-14,51.5,39.0,26.6,22.0,19.8,16.0,77,50,30,30.24,30.13,4,0,9,0.00
2013-11-15,56.2,44.3,33.7,27.0,24.0,17.0,65,46,28,30.24,30.13,4,0,9,0.00
2013-11-16,59.9,48.9,40.1,46.0,39.3,26.0,97,71,50,30.31,30.21,5,0,7,0.01
2013-11-17,58.0,52.4,45.2,58.0,51.7,44.0,98,98,96,30.26,29.77,4,0,8,0.00
2013-11-18,62.8,57.0,48.0,60.0,40.8,29.0,98,58,35,29.76,29.56,17,2,19,0.00
2013-11-19,47.9,41.0,33.2,31.6,26.7,22.0,65,57,50,30.33,29.75,14,5,24,0.00
2013-11-20,41.6,34.0,28.4,22.4,18.5,13.0,72,55,32,30.59,30.33,7,2,13,0.00
2013-11-21,48.1,39.1,27.6,40.0,29.2,18.0,81,68,57,30.61,30.38,4,0,8,0.00
2013-11-22,56.5,49.6,44.9,50.2,46.0,39.5,97,88,77,30.38,29.88,2,0,8,0.09
2013-11-23,52.5,39.2,27.5,47.7,26.2,6.0,85,61,38,30.01,29.86,15,4,24,0.00
2013-11-24,27.4,23.6,20.5,12.0,6.9,0.8,60,49,32,30.35,29.99,17,5,26,0.00
2013-11-25,34.7,26.9,19.2,16.5,13.2,9.0,71,57,42,30.46,30.31,6,2,11,0.00
2013-11-26,41.4,33.8,30.8,40.8,24.9,15.0,100,71,53,30.32,29.80,5,1,7,0.57
2013-11-27,59.0,44.5,31.6,59.0,42.2,21.0,99,92,64,29.79,29.33,12,3,22,1.24
2013-11-28,32.2,29.3,25.8,21.3,15.7,11.0,70,57,43,30.45,29.70,14,3,21,0.00
2013-11-29,35.3,29.8,25.6,22.0,19.2,12.9,81,65,55,30.72,30.45,7,1,12,0.00
2013-11-30,33.3,28.0,20.7,26.5,18.0,12.8,77,66,53,30.75,30.37,4,1,8,0.00
2013-12-1,46.3,39.1,31.1,34.6,31.4,26.6,90,75,59,30.37,30.00,2,0,5,0.00
2013-12-2,45.3,38.7,34.9,37.6,33.9,29.0,94,83,73,30.00,29.87,0,0,4,0.00
2013-12-3,52.6,39.7,31.8,39.5,35.2,30.9,98,85,58,29.99,29.86,3,0,7,0.00
2013-12-4,49.5,41.8,32.9,41.0,36.8,31.4,96,83,67,30.13,29.99,3,0,6,0.00
2013-12-5,54.2,49.5,44.7,53.9,48.6,40.7,99,97,84,30.11,29.92,1,0,3,0.03
2013-12-6,54.8,48.2,42.2,54.5,47.5,41.1,99,97,95,30.03,29.85,6,1,7,0.13
2013-12-7,38.7,34.3,28.8,33.8,28.9,18.0,100,82,60,30.50,30.08,5,2,6,0.01
2013-12-8,30.1,28.0,25.0,26.4,20.0,16.4,94,72,62,30.58,30.39,4,1,5,0.00
2013-12-9,35.9,32.2,27.8,35.4,31.4,26.4,98,97,95,30.39,29.96,4,1,6,0.01
2013-12-10,34.4,30.2,23.2,32.1,28.4,19.4,98,93,84,30.09,29.85,2,0,3,0.00
2013-12-11,32.1,25.9,21.0,21.9,19.0,17.0,89,75,61,30.29,30.10,3,1,12,0.00
2013-12-12,25.8,22.0,18.7,17.8,9.9,7.4,75,60,50,30.33,30.13,5,2,8,0.00
2013-12-13,33.1,25.5,17.4,20.6,13.9,7.7,77,61,52,30.32,30.10,5,2,11,0.00
2013-12-14,26.5,20.7,17.0,22.1,17.8,15.3,95,89,74,30.50,29.84,7,3,12,0.00
2013-12-15,34.6,30.8,23.6,33.1,28.7,22.4,97,92,78,29.82,29.53,8,2,10,0.00
2013-12-16,29.9,24.7,17.6,25.2,13.8,9.4,91,63,48,30.22,29.80,5,2,16,0.00
2013-12-17,24.0,20.6,15.7,22.5,17.4,9.8,94,87,71,30.22,29.94,3,1,4,0.00
2013-12-18,34.9,26.8,18.3,24.9,20.9,16.4,93,79,59,30.15,29.92,6,1,12,0.00
2013-12-19,44.7,33.2,22.6,29.5,24.9,18.9,94,73,52,30.16,30.00,4,1,8,0.00
2013-12-20,47.6,41.9,35.6,35.8,32.2,28.5,78,69,58,30.09,29.94,4,0,5,0.00
2013-12-21,56.5,49.9,41.3,52.9,44.8,36.7,92,83,70,29.97,29.88,4,1,7,0.00
2013-12-22,65.6,60.5,55.8,62.8,58.3,52.9,95,93,90,29.88,29.77,5,2,9,0.02
2013-12-23,59.1,53.8,38.5,56.9,52.2,29.6,98,94,70,30.11,29.88,7,1,12,0.29
2013-12-24,38.2,32.8,22.9,29.8,22.6,9.5,90,66,51,30.32,30.07,8,3,14,0.00
2013-12-25,28.0,21.9,15.9,15.3,9.9,6.6,69,60,48,30.51,30.32,7,2,21,0.00
2013-12-26,34.3,28.7,23.9,27.3,22.4,14.6,88,77,67,30.42,30.14,2,0,8,0.00
2013-12-27,36.9,31.3,24.8,25.3,22.6,19.9,84,70,55,30.34,30.24,3,0,8,0.00
2013-12-28,51.9,39.2,27.8,28.5,26.0,22.2,80,61,39,30.27,30.05,4,1,13,0.00
2013-12-29,41.5,39.3,37.0,39.2,33.5,28.1,95,80,65,30.05,29.43,11,2,18,0.49
2013-12-30,40.6,32.6,19.9,36.0,24.8,9.0,92,74,55,30.18,29.65,11,2,21,0.00
2013-12-31,28.8,23.0,17.6,24.0,13.6,8.8,88,67,50,30.26,30.04,14,1,16,0.14
2014-1-1,31.1,24.9,17.1,21.3,15.1,9.0,77,66,56,30.40,30.25,5,0,11,0.00
2014-1-2,27.9,20.8,10.7,22.0,17.1,8.0,95,86,74,30.25,29.69,11,5,17,0.00